Theta_e
318 318 318 318 317 316 315 314 313 312 310 309 308 307 306 305 305 304 304 303 303 302 302 303 303 303 303 303 303 303 303 303 303 302 302 301 301 301 300 300 299 298 297 296 296 296 296 296 295 295 294 293 293 293 293 293 293 293 293 293 293 294 294 293 293 294 294 294 294 294 294 294 294 294 294 294 294 294 294 294 294 294 295 295 295
317 317 317 317 316 314 313 312 311 310 309 308 307 306 305 305 304 304 303 303 302 302 301 301 302 303 303 303 303 303 303 303 303 302 302 301 301 301 300 299 298 297 297 296 296 296 296 296 296 295 294 293 293 293 293 293 293 293 293 293 293 293 293 293 293 293 293 293 293 294 294 294 294 294 294 294 294 294 294 294 294 294 295 295 295
315 316 315 315 314 313 312 311 310 309 308 308 307 306 305 304 303 303 302 301 301 300 300 300 301 302 303 303 303 303 303 303 302 302 302 301 301 300 300 299 298 297 297 297 296 296 296 296 295 295 294 293 293 293 293 293 293 293 293 293 293 293 293 293 293 293 293 293 293 293 293 294 294 294 294 294 294 294 294 294 294 294 295 295 295
314 314 314 314 312 312 311 310 309 309 308 307 306 305 304 303 303 303 302 301 300 298 296 296 298 300 302 303 303 303 303 303 302 301 301 301 300 300 300 299 298 298 297 297 296 296 296 296 295 294 293 293 293 293 293 293 293 293 293 293 293 293 293 293 293 293 292 293 293 293 293 293 293 293 293 293 293 293 293 294 294 294 295 295 295
313 313 313 312 312 311 310 310 309 308 307 306 305 304 303 303 303 302 302 301 298 295 294 294 296 298 301 302 303 303 303 302 302 302 301 301 300 300 299 299 299 298 297 297 296 296 296 296 295 294 293 293 293 293 293 293 293 293 293 293 293 293 293 293 293 293 292 292 293 293 293 293 293 293 293 293 293 293 293 294 294 294 295 295 295
312 312 312 311 311 311 310 309 309 308 307 306 305 304 303 303 302 302 302 300 296 293 293 294 295 297 300 302 303 302 302 302 302 302 301 300 300 299 299 299 299 298 297 297 297 296 296 296 295 294 294 293 293 293 293 293 293 294 294 294 294 293 293 293 293 293 292 292 292 293 293 293 293 293 293 293 293 293 293 293 294 294 294 295 295
312 312 311 311 311 311 310 309 308 307 307 306 305 304 303 303 302 302 301 298 294 292 293 294 295 297 300 302 302 302 302 302 302 301 300 299 299 299 299 299 298 298 298 297 297 296 296 296 295 294 294 294 293 293 293 293 293 294 294 294 293 293 293 293 293 293 292 292 292 292 292 293 293 292 292 292 293 293 293 293 294 294 294 294 294
311 311 311 311 311 310 309 309 307 307 306 305 305 304 303 303 302 301 299 295 293 293 294 294 295 297 300 301 302 302 302 302 301 301 300 299 299 299 299 299 298 298 298 297 297 296 296 296 295 295 294 294 293 293 293 294 294 294 294 294 293 293 293 293 293 292 292 292 292 292 292 292 292 292 292 292 292 293 293 293 294 294 294 294 294
311 311 311 311 310 309 309 308 307 306 306 305 304 303 303 302 302 301 298 294 292 293 294 295 296 297 299 300 301 301 301 301 301 301 300 299 299 299 299 298 298 298 298 297 296 296 296 295 295 295 294 293 293 293 294 294 294 294 293 293 293 293 293 293 292 292 292 292 292 292 292 292 292 292 292 292 292 292 293 293 294 294 294 294 294
311 311 310 310 309 309 308 307 307 306 305 305 304 303 302 302 302 301 298 294 292 293 294 295 296 297 299 299 300 301 301 301 301 300 300 300 299 299 299 298 297 298 297 297 296 297 296 295 295 296 295 294 294 294 294 294 294 293 293 293 293 293 293 293 292 292 292 292 292 292 291 292 292 292 292 292 292 292 293 293 293 293 294 294 294
310 310 309 309 308 308 307 307 306 306 305 304 303 303 302 302 301 300 296 293 293 294 295 295 296 297 298 299 299 300 300 300 300 300 300 300 299 299 299 298 297 297 297 297 296 297 296 295 296 296 295 294 294 294 294 294 293 293 293 293 293 293 293 293 292 292 292 292 291 292 291 291 292 292 291 292 292 292 292 293 293 293 294 294 294
309 309 309 308 308 307 307 306 306 305 305 304 303 303 302 302 300 297 293 292 293 294 294 295 296 297 297 298 299 299 299 299 299 299 299 299 299 299 298 298 297 297 297 297 297 297 296 295 296 295 295 294 294 294 294 294 293 293 293 293 293 293 293 293 292 292 292 292 291 291 291 291 291 291 291 291 292 292 292 292 293 293 293 294 294
309 308 308 307 307 306 306 306 305 305 305 304 303 303 302 301 298 294 292 292 293 293 294 295 295 296 297 297 298 298 298 298 298 298 299 298 298 298 298 298 298 298 297 297 297 297 296 296 295 295 294 294 294 294 294 294 293 293 293 293 293 293 292 292 292 291 291 291 291 291 291 291 291 291 291 291 291 291 292 292 293 293 293 293 294
309 308 307 307 306 306 306 305 305 305 304 304 303 303 302 300 295 292 292 292 292 292 293 293 294 295 296 296 297 297 297 298 298 298 298 298 297 297 297 297 297 298 298 297 297 296 296 296 296 294 294 294 294 293 294 293 293 293 293 293 293 292 292 292 291 290 290 291 291 291 291 291 291 291 291 291 291 291 292 292 293 293 293 293 293
308 308 307 306 306 306 305 305 305 304 304 304 303 302 301 298 293 291 291 291 291 291 291 292 292 293 293 294 295 296 296 297 297 297 297 296 295 294 294 295 297 297 297 297 297 296 296 295 295 294 294 294 294 294 294 293 293 293 293 292 292 291 291 291 290 290 290 291 291 291 291 292 291 291 291 291 291 291 292 292 293 293 293 293 293
308 307 307 306 306 305 305 304 304 304 304 304 303 302 300 297 293 292 292 292 291 291 290 290 291 290 291 291 292 292 293 293 294 294 293 293 292 291 291 294 296 296 297 297 296 295 295 294 294 294 294 294 294 294 293 293 293 293 292 292 291 291 291 290 289 290 291 292 292 292 292 293 292 292 292 292 291 292 292 292 293 293 293 293 293
307 307 306 306 305 305 305 304 304 304 304 304 303 302 300 298 296 295 295 295 295 293 291 290 290 290 290 290 290 290 290 290 290 290 290 290 290 290 291 294 296 296 296 296 295 294 294 294 293 294 294 294 294 293 293 293 293 292 291 291 291 291 290 289 289 291 292 292 293 293 294 294 293 292 292 292 291 292 292 292 292 292 292 293 293
307 307 306 305 305 305 304 304 304 304 304 304 303 302 301 299 299 299 299 299 299 296 292 291 291 291 291 291 290 290 290 290 290 290 289 289 290 291 292 294 295 295 295 295 294 293 294 294 294 294 294 294 294 293 293 293 292 292 291 291 291 290 289 289 290 291 292 293 293 294 294 294 293 292 292 292 291 292 292 292 292 292 292 292 293
307 306 306 305 305 304 304 304 304 304 303 303 303 302 301 301 301 301 301 301 301 299 294 292 293 293 293 293 292 291 290 290 290 290 290 289 290 292 293 294 294 294 294 294 294 294 294 294 294 294 294 294 294 293 293 293 292 292 291 290 290 290 289 289 290 291 291 292 292 293 293 293 292 292 292 292 292 292 292 292 292 292 292 292 292
306 306 305 305 305 304 304 304 304 303 303 303 303 303 302 302 301 301 301 301 301 300 295 293 295 296 296 295 294 292 292 291 290 290 290 290 291 292 293 293 293 293 293 293 293 294 294 294 294 294 294 294 294 293 293 293 292 292 291 290 290 290 289 289 290 291 291 291 292 292 292 292 292 292 291 292 291 291 292 292 292 292 292 292 291
306 305 305 305 304 304 304 304 303 303 303 303 303 303 303 302 302 302 302 301 301 300 296 294 296 297 297 297 296 294 293 292 290 290 290 290 291 292 293 293 293 293 293 293 294 294 294 294 294 294 294 294 293 293 293 293 292 291 291 290 290 289 289 289 290 291 291 291 291 291 292 291 291 291 291 291 291 291 291 292 292 292 292 291 291
305 305 305 304 304 303 303 303 303 303 303 303 303 303 302 302 302 302 301 301 301 299 296 295 296 298 298 298 297 295 294 293 291 290 290 291 292 292 293 293 293 293 293 293 294 294 294 295 295 295 295 294 293 293 293 292 292 291 290 289 289 288 288 289 290 291 292 291 291 291 291 291 291 291 291 291 291 291 292 292 292 292 292 291 291
305 305 304 304 303 303 303 303 303 303 303 303 303 303 302 302 302 301 301 301 300 297 296 296 297 297 298 298 298 297 295 294 292 290 290 292 292 292 293 293 293 293 293 294 294 294 295 295 295 295 295 294 293 293 293 292 292 291 290 289 288 288 288 289 290 291 291 290 290 290 290 290 290 290 291 291 291 291 292 292 292 292 292 292 291
304 304 303 303 303 303 303 303 303 303 303 303 303 302 302 301 300 300 300 300 298 296 296 297 297 297 298 298 299 298 297 295 293 290 290 292 292 292 293 293 293 293 294 294 294 295 295 295 295 295 294 294 294 293 293 292 292 291 290 289 288 288 288 289 290 290 290 290 289 289 290 290 290 290 290 291 291 292 292 292 292 292 292 292 291
303 303 303 302 302 302 302 302 303 303 303 302 302 301 301 300 298 298 297 296 296 297 297 297 298 298 298 298 299 299 298 297 294 291 290 291 292 293 293 293 293 294 294 294 295 295 295 295 295 295 294 294 294 293 293 293 293 292 291 290 289 288 288 289 290 290 289 289 289 289 290 290 290 290 291 291 291 292 292 292 292 292 292 292 292
303 302 302 302 302 302 302 302 302 303 302 301 301 301 301 300 298 296 295 295 297 298 298 298 299 299 299 299 299 299 299 298 296 293 290 290 291 292 293 293 293 294 294 295 295 295 295 295 295 294 294 294 293 293 293 292 293 292 291 291 290 289 288 289 290 289 289 289 289 289 290 290 291 291 291 291 291 292 292 292 292 292 292 292 292
302 302 301 301 301 302 302 302 301 302 301 301 301 301 300 299 298 297 297 298 299 299 299 299 299 299 299 299 299 299 299 298 297 295 293 291 291 292 293 294 294 294 294 295 296 295 295 295 295 294 294 294 293 293 293 292 292 292 292 292 291 290 288 288 289 289 289 289 290 290 290 291 291 291 291 290 291 291 292 292 292 292 292 292 292
302 301 301 301 301 301 301 301 301 301 301 301 301 300 300 299 299 299 299 299 299 299 299 299 299 299 299 299 299 299 299 299 298 297 295 292 290 291 293 294 294 294 295 295 296 296 296 295 295 295 294 294 293 293 293 293 292 292 292 292 292 292 290 288 288 289 289 289 290 290 290 290 291 290 290 290 290 291 291 292 292 292 292 292 292
301 301 301 300 301 301 301 301 301 300 300 300 300 300 300 300 300 300 300 300 300 300 299 299 299 300 300 300 300 299 299 299 298 298 296 293 291 290 292 293 294 294 295 295 296 296 296 296 296 295 294 293 293 293 293 293 292 292 293 292 292 292 291 289 288 289 289 289 290 290 290 290 290 290 289 290 290 290 291 292 292 292 292 292 292
300 301 301 300 300 301 300 300 301 300 300 300 300 300 300 300 300 300 300 300 299 299 299 299 300 300 300 300 300 299 299 299 298 297 296 293 291 290 291 292 293 294 295 295 296 296 296 296 296 295 294 293 293 293 293 293 292 292 293 293 292 292 291 289 288 289 289 289 289 290 290 289 289 289 289 289 289 290 291 292 292 292 291 291 291
300 300 300 300 300 300 300 300 300 300 300 300 300 300 300 300 300 300 300 300 299 299 300 300 300 301 300 300 299 299 298 298 297 297 296 293 291 290 291 292 293 294 295 295 295 296 296 296 296 296 295 294 293 293 293 293 292 292 292 292 292 292 291 290 289 288 289 288 289 290 290 290 289 289 289 289 289 290 290 291 291 292 291 291 291
300 300 300 300 300 300 300 300 300 300 300 300 300 300 300 299 299 299 299 299 300 300 301 300 300 300 300 299 299 299 298 297 297 296 294 292 291 291 292 293 294 295 295 295 295 296 296 296 296 296 295 294 294 293 293 293 293 292 292 292 292 292 291 291 289 289 288 288 288 290 290 290 290 290 289 289 289 289 290 290 291 291 291 291 291
300 300 300 300 300 300 300 300 300 300 300 300 300 300 300 300 299 299 299 300 300 301 301 300 299 299 299 299 299 298 297 297 296 294 292 291 291 292 293 294 294 295 295 295 295 296 296 296 296 296 296 295 294 293 293 293 293 293 292 292 292 292 292 291 290 289 289 288 288 289 290 290 290 290 290 290 289 289 290 290 290 291 291 291 291
301 300 300 300 300 300 300 300 300 300 300 300 300 300 300 300 300 300 300 300 300 300 299 299 299 299 298 298 298 297 295 295 294 292 291 291 292 293 294 294 295 295 295 295 295 296 296 296 296 296 296 296 295 294 294 294 293 293 292 292 292 292 292 291 291 290 289 288 288 288 289 290 290 290 290 290 289 289 289 290 290 291 291 291 290
300 300 300 300 300 300 300 300 300 300 300 300 300 300 300 300 300 300 300 300 299 299 299 299 299 298 298 298 297 295 293 292 293 293 293 292 292 293 294 295 295 295 296 296 296 296 296 296 296 296 296 296 295 294 294 294 294 293 293 292 292 292 292 292 291 291 290 289 288 288 289 290 290 290 290 290 289 288 288 289 290 291 291 290 290
300 300 300 300 300 300 300 300 300 300 300 300 300 300 300 300 300 300 300 300 300 299 299 299 298 298 297 296 294 293 292 292 293 295 295 293 293 294 294 295 295 296 296 296 296 296 296 296 296 297 296 296 296 295 294 294 294 294 293 293 292 292 292 292 291 291 290 289 288 288 288 289 290 290 290 290 290 289 288 289 290 291 291 291 290
300 300 300 300 300 300 300 300 300 300 300 300 300 300 300 300 300 300 300 300 300 299 299 298 296 295 295 294 293 294 294 293 294 296 296 295 295 295 295 296 296 296 296 296 296 296 296 296 296 296 297 296 296 296 295 295 294 294 294 293 293 292 292 292 291 291 291 290 289 288 288 289 290 290 290 290 290 289 289 289 291 292 292 292 291
300 300 300 300 300 300 300 300 300 300 300 300 300 300 300 300 300 300 299 299 299 299 299 298 295 294 294 294 294 295 295 295 295 296 296 296 296 296 296 297 297 296 296 296 296 296 296 295 296 296 297 297 296 296 295 295 295 295 295 294 294 293 292 292 292 291 291 291 290 288 287 288 289 290 290 290 289 289 289 290 290 292 293 292 291
300 300 300 300 300 300 300 299 299 299 300 300 300 300 300 300 300 299 298 298 298 299 299 298 297 295 296 297 296 296 296 296 296 297 297 297 297 297 297 297 297 297 297 297 296 296 296 295 296 296 297 297 297 296 296 295 295 295 295 295 294 294 293 292 292 291 291 291 290 289 288 288 288 290 290 290 290 289 290 290 290 291 293 293 292
300 300 300 300 300 300 300 300 299 299 300 300 300 300 300 300 299 299 298 298 299 299 299 299 298 297 298 299 299 298 298 298 298 298 298 298 298 298 298 298 298 298 298 297 297 296 296 295 296 297 297 297 297 296 296 296 296 296 295 295 295 295 294 293 292 292 291 291 291 290 289 288 288 289 290 290 290 290 290 290 290 291 293 294 293
300 300 301 300 300 300 300 299 299 299 300 300 300 300 301 300 300 300 299 299 299 299 300 300 299 299 299 299 299 299 299 299 299 299 299 299 299 299 299 299 298 298 299 298 298 297 296 296 296 297 297 297 297 297 296 296 296 296 296 296 295 295 294 294 293 292 291 291 291 291 290 288 288 288 289 290 290 290 290 290 290 290 292 294 294
300 300 301 300 300 300 299 299 299 299 299 300 300 301 301 300 300 300 300 299 300 300 300 300 300 299 300 300 300 299 299 299 299 300 299 299 299 299 299 299 299 299 299 299 298 297 297 296 297 297 297 297 297 297 297 296 296 296 296 296 296 295 295 295 294 293 292 291 291 291 290 289 288 288 289 289 290 290 290 290 290 290 291 293 294
301 301 301 300 300 300 300 300 300 299 299 299 300 300 301 300 300 300 300 300 300 300 300 300 300 300 300 300 300 299 299 299 299 299 299 299 299 299 299 299 299 299 299 299 298 298 297 297 297 297 297 297 297 297 297 297 297 297 296 296 296 296 295 295 295 294 293 292 291 291 291 290 289 288 288 289 289 290 289 290 290 290 290 292 293
301 301 301 301 300 300 300 300 300 299 299 299 300 300 300 300 300 300 300 300 301 300 300 300 300 300 300 300 300 300 299 299 299 299 299 299 299 299 299 299 299 299 299 299 298 298 297 297 297 297 298 298 298 297 297 297 297 297 296 296 296 296 296 296 295 295 294 293 293 292 291 291 290 289 288 288 289 289 289 289 289 289 289 290 292
301 301 301 300 300 300 300 300 300 300 300 300 300 299 299 299 299 299 299 300 301 301 301 300 300 300 300 300 300 300 299 299 299 299 299 299 299 299 299 299 299 299 299 299 299 298 298 298 298 298 298 298 298 298 298 298 297 297 297 297 296 296 296 296 296 295 295 294 294 293 292 291 291 290 289 289 289 289 289 289 289 289 289 289 291
301 301 301 301 300 300 300 300 300 300 300 300 300 300 300 299 299 300 300 300 300 301 300 300 300 300 300 300 300 300 299 299 299 299 299 299 299 299 299 299 299 299 299 299 299 299 298 298 298 298 298 298 298 298 298 298 298 298 297 297 297 297 297 296 296 295 295 295 295 294 293 292 292 291 290 289 289 289 289 289 289 289 289 289 289
302 302 301 301 300 300 300 300 300 300 300 300 300 300 300 300 300 300 301 301 300 300 300 300 300 300 300 299 299 299 299 299 299 299 300 300 299 299 299 299 299 299 299 299 299 299 299 298 298 298 298 298 298 298 298 298 298 298 298 297 297 297 297 297 296 296 295 295 295 295 294 293 292 292 291 290 289 289 289 289 289 289 289 289 289
302 301 301 301 301 301 300 300 300 300 300 300 300 300 300 301 301 301 300 300 300 300 300 300 300 300 300 300 300 300 299 299 299 299 300 299 299 299 298 298 298 298 298 298 298 298 298 298 298 298 298 298 298 298 298 298 298 298 298 298 298 297 297 297 296 296 296 295 295 295 295 294 293 293 292 291 290 290 289 290 290 290 289 289 289
301 301 301 301 301 301 301 301 301 301 301 301 300 301 300 300 301 300 300 300 300 300 300 300 300 300 300 300 300 300 300 299 299 299 300 299 299 299 299 299 299 298 298 298 298 298 298 298 298 298 298 298 298 298 298 298 298 298 298 298 298 298 298 297 297 297 296 296 295 295 295 295 294 294 293 292 292 291 290 290 290 290 290 290 289
301 301 301 301 301 301 301 301 301 302 302 301 301 301 301 300 300 300 300 300 300 300 300 300 300 300 300 300 300 300 300 300 300 300 299 299 299 299 299 299 299 298 298 299 298 298 298 298 298 298 298 298 298 298 298 298 298 298 298 298 298 298 298 298 297 297 297 296 296 295 295 295 295 294 294 293 292 292 291 290 290 290 290 290 290
301 301 301 301 301 300 300 300 300 300 301 301 301 301 300 300 300 300 300 300 300 300 300 300 300 300 300 300 300 300 300 300 299 299 299 299 299 299 299 299 299 299 299 299 299 298 298 298 298 298 298 298 298 298 298 298 298 298 298 298 298 298 298 298 298 297 297 297 296 296 295 295 295 295 294 294 293 293 292 291 290 290 290 291 291
Wind_Speed
20 20 20 20 21 22 23 24 24 23 22 21 21 20 19 19 20 19 18 16 14 14 14 14 15 15 16 17 17 18 17 17 16 15 17 17 16 16 15 15 16 16 15 15 15 16 16 16 17 18 19 19 18 16 15 14 14 14 14 15 17 18 18 15 11 15 24 28 29 31 33 32 33 33 34 36 37 38 38 37 37 37 37 37 37
20 20 20 21 21 22 23 24 24 23 22 21 20 20 20 20 20 18 17 15 13 12 12 13 14 15 16 17 17 17 17 17 16 15 16 16 16 15 14 14 15 15 14 13 13 14 14 14 14 16 18 18 17 15 13 14 15 16 17 17 19 21 21 19 17 16 21 28 31 32 33 32 32 34 34 34 36 37 38 39 38 37 37 37 37
21 21 22 22 22 22 23 23 23 22 21 21 21 21 21 21 19 17 15 14 11 10 10 12 14 15 16 17 16 16 16 16 15 14 14 15 15 14 13 12 13 13 13 12 12 12 12 12 12 15 16 16 16 14 13 14 15 17 19 20 21 24 24 23 21 18 20 27 31 32 33 33 33 35 35 34 34 35 36 38 39 37 37 36 37
22 22 23 22 21 22 23 23 22 21 21 22 22 22 22 21 18 15 14 12 10 10 10 11 14 15 16 17 16 16 15 14 14 13 13 13 13 12 11 10 11 11 11 11 10 10 10 10 11 13 14 15 15 15 14 15 17 19 21 23 24 26 27 27 25 23 22 25 29 32 33 33 33 34 35 35 34 33 34 36 38 37 37 36 37
23 23 23 22 22 23 24 23 22 22 23 23 23 22 21 20 17 14 13 11 9 10 11 12 14 16 17 17 16 15 14 13 13 13 12 12 11 10 9 9 8 8 9 9 9 9 8 8 10 12 13 14 15 16 16 17 19 22 24 26 27 27 28 28 28 26 24 25 30 32 33 32 33 34 34 34 35 35 34 34 34 35 37 38 38
23 23 23 24 24 25 25 24 23 23 23 23 22 22 21 19 16 14 11 9 9 11 12 13 14 16 17 16 15 15 14 12 12 12 12 10 9 8 8 7 6 6 6 8 8 7 6 7 10 12 13 14 15 15 17 19 21 25 26 27 29 29 29 29 29 28 27 27 29 31 32 32 31 32 34 33 33 34 35 34 33 34 37 39 40
25 25 25 24 24 25 26 24 23 23 23 23 22 22 21 18 16 13 10 9 10 12 13 14 14 15 16 16 15 14 13 12 11 12 11 9 7 7 7 6 5 4 4 5 6 4 4 6 10 13 14 14 15 16 18 20 23 26 29 29 30 29 29 29 29 28 28 27 28 29 30 30 30 31 34 34 32 31 31 31 32 36 39 38 40
27 27 25 24 24 26 26 24 23 23 23 23 23 22 21 18 15 13 10 9 10 11 13 13 14 15 16 16 15 14 13 12 11 11 10 8 6 5 5 5 4 3 2 2 3 2 2 6 11 14 15 14 14 16 19 21 23 27 30 31 30 28 28 28 29 28 27 26 27 27 28 29 30 31 33 32 30 28 29 30 31 35 40 40 38
28 28 26 25 26 27 27 26 25 24 23 23 23 22 21 18 15 12 9 9 10 12 13 13 14 15 16 15 14 13 12 11 10 9 8 7 6 4 3 4 4 3 3 2 1 1 0 6 12 15 15 14 14 16 19 22 25 28 30 30 28 27 27 28 28 28 26 25 26 27 26 27 29 31 30 29 29 30 33 34 31 33 39 40 38
29 28 27 27 28 28 27 27 27 26 25 24 23 23 21 18 15 12 10 9 11 13 14 14 14 15 15 15 14 13 12 10 9 8 7 6 5 3 3 3 4 4 4 4 3 3 1 4 12 15 15 15 15 17 21 24 24 25 26 25 24 25 27 28 28 27 25 24 25 26 25 25 28 30 30 32 33 33 35 33 31 34 35 32 32
29 29 29 29 30 29 28 28 28 27 26 25 24 23 21 18 15 12 11 11 12 14 14 14 14 14 15 15 14 12 11 9 8 6 5 5 3 3 3 3 3 3 3 5 6 5 2 3 10 14 14 15 17 20 23 23 21 21 22 22 21 23 25 27 28 28 26 25 27 27 25 25 30 33 33 34 34 33 34 34 32 33 31 24 23
29 29 29 30 30 30 29 28 28 27 27 26 25 23 21 18 16 13 13 13 14 15 14 14 14 14 14 14 13 12 11 8 7 5 4 4 2 2 3 2 2 1 1 3 6 6 4 4 10 13 14 16 19 22 23 21 20 20 22 23 22 22 23 25 27 29 29 28 28 29 28 29 32 34 35 36 36 35 35 33 31 31 30 26 23
29 28 29 30 30 30 30 29 29 29 28 27 26 24 22 19 16 15 15 16 16 15 15 14 13 12 12 12 12 11 9 7 5 4 3 3 2 2 3 3 3 3 3 2 4 5 4 6 11 12 14 17 20 22 22 21 21 22 23 23 23 24 24 24 26 29 30 29 28 30 32 33 33 35 39 40 39 38 35 33 33 32 31 29 29
29 28 29 29 29 30 30 30 30 30 29 28 27 25 23 20 18 17 17 18 17 16 15 14 13 11 10 10 10 9 8 6 4 3 4 4 4 5 5 5 5 4 3 2 3 4 4 8 11 13 15 18 19 21 22 22 22 23 24 24 25 26 26 28 30 32 31 30 30 32 35 35 35 39 42 42 40 38 35 35 37 36 35 35 35
28 28 29 29 30 31 30 30 30 30 30 29 28 27 24 22 21 19 18 18 17 17 16 14 13 12 10 9 9 8 7 5 4 4 5 5 5 6 6 6 5 4 3 2 2 3 4 7 10 13 17 18 17 18 20 22 23 24 25 25 27 28 29 31 34 33 31 31 31 33 35 37 38 40 43 43 41 39 37 38 40 41 40 37 34
27 28 29 30 31 31 31 31 31 30 30 30 29 28 27 25 23 21 19 18 17 16 16 15 14 13 12 10 9 8 7 4 3 3 3 3 4 5 4 5 5 3 3 3 2 2 4 6 10 14 16 15 15 17 19 21 23 24 25 27 28 29 31 34 33 31 30 30 31 33 35 37 39 40 42 42 40 40 40 39 40 39 35 30 28
28 29 30 30 31 31 31 32 31 31 31 31 30 30 29 27 24 22 19 18 16 15 15 15 14 13 13 11 10 9 8 5 3 1 1 2 2 2 2 5 5 4 4 3 2 1 3 7 10 13 15 14 14 17 20 21 22 23 26 28 29 30 33 35 33 30 29 30 31 33 36 38 40 41 42 41 40 40 40 39 39 38 32 23 19
29 30 30 31 32 32 32 33 32 32 31 31 31 31 30 28 25 22 20 18 16 14 13 14 14 13 13 12 10 10 9 7 5 4 4 4 3 1 2 4 6 5 4 3 2 1 4 7 11 14 15 14 13 17 19 20 21 23 25 27 28 31 34 35 34 33 32 33 34 36 38 40 41 42 42 41 41 40 38 38 40 39 34 26 24
30 30 31 31 32 32 33 33 33 32 31 31 31 31 30 28 25 22 20 18 16 14 13 14 14 13 12 11 10 9 8 7 6 5 5 5 3 2 3 4 5 5 3 2 1 2 5 7 10 13 15 13 14 16 18 18 20 22 25 26 28 30 33 33 34 35 35 36 37 38 40 41 42 42 43 43 42 41 39 39 38 36 35 34 33
30 31 31 32 32 33 33 33 33 33 32 31 30 30 29 28 26 23 20 18 17 15 15 15 14 12 11 9 7 6 6 6 6 6 5 5 2 3 4 5 5 5 3 2 2 4 6 7 10 12 13 12 14 16 17 17 19 22 24 25 26 29 31 31 31 33 35 36 37 38 40 41 42 43 43 44 44 42 41 40 37 35 36 36 36
30 31 31 32 32 33 33 33 32 32 32 31 30 29 28 27 25 23 21 19 17 17 17 16 14 12 10 9 7 5 4 4 5 5 5 4 2 3 5 4 4 3 3 4 5 6 8 9 11 13 13 12 14 17 17 17 20 22 23 24 25 27 29 29 30 32 34 35 37 38 39 40 41 43 43 44 45 44 43 42 38 36 36 36 37
31 31 32 32 33 33 32 32 32 32 32 31 30 28 27 25 24 23 22 21 19 19 19 18 16 13 11 10 8 5 3 2 3 3 3 3 2 4 4 3 2 2 4 5 7 8 10 11 13 14 14 12 14 17 17 18 21 22 23 24 26 27 28 28 29 31 33 35 36 37 38 39 40 42 43 44 45 46 46 45 41 37 37 37 36
32 32 32 33 33 33 32 32 32 32 32 31 31 29 28 26 25 24 24 22 21 21 21 19 17 15 13 12 11 9 5 2 0 1 2 2 2 4 4 2 1 3 5 7 8 10 10 11 13 14 14 13 14 16 18 19 21 23 24 26 27 28 28 28 29 32 33 34 34 35 37 38 39 41 43 44 46 48 47 46 44 39 37 38 38
32 32 33 33 33 33 32 33 33 33 32 31 30 30 29 27 27 26 25 24 24 23 22 20 19 18 16 15 14 12 9 6 3 1 0 0 2 3 3 1 2 4 6 8 10 10 10 11 12 13 13 13 14 16 18 19 21 24 26 28 29 30 29 28 30 32 33 33 33 34 36 38 39 41 43 44 46 46 45 45 44 41 38 38 37
33 33 33 33 33 32 32 33 33 33 33 32 31 31 30 28 28 27 27 26 26 24 23 21 20 19 18 17 16 14 12 10 7 4 2 2 3 4 3 3 3 5 7 9 10 10 10 11 11 11 12 12 14 16 18 19 21 24 26 29 31 31 30 29 30 32 32 32 33 34 36 39 40 41 43 44 44 45 46 46 46 44 42 41 39
33 32 32 32 32 32 32 32 33 33 33 32 32 32 31 30 29 29 28 28 26 24 23 22 21 20 20 19 17 16 16 14 11 7 5 4 5 5 4 4 5 6 8 9 10 9 9 9 10 10 11 12 13 16 18 19 21 23 25 28 31 32 31 29 29 30 31 32 33 34 36 39 41 42 44 44 43 44 45 45 45 45 45 43 40
33 32 32 31 31 32 33 33 32 33 33 33 32 32 31 31 30 30 30 28 27 25 23 22 22 22 22 21 19 18 18 17 14 10 7 6 6 6 6 6 7 8 9 9 9 9 8 8 9 9 11 12 13 14 17 18 20 23 25 27 30 32 32 30 28 29 30 31 33 34 36 39 41 43 44 43 42 43 44 43 42 42 43 40 37
33 32 31 31 32 33 33 33 33 32 32 33 33 32 32 32 31 31 30 29 27 26 25 23 22 22 22 22 21 20 20 20 18 14 10 7 7 7 8 9 10 10 9 9 10 9 9 9 9 9 10 12 13 15 17 18 20 22 24 26 29 31 33 32 30 30 30 30 32 34 36 39 40 42 43 43 42 42 43 43 41 40 41 37 33
32 31 31 31 32 32 33 33 33 32 32 32 32 32 32 32 31 29 28 26 25 25 24 23 22 21 20 20 20 21 22 20 16 13 11 9 7 8 10 11 12 11 10 10 10 10 9 10 11 11 11 12 14 16 18 20 21 21 23 25 27 30 32 33 32 31 31 31 32 33 35 37 39 40 41 41 42 43 43 42 41 40 40 36 32
31 30 31 31 32 32 32 32 32 32 31 31 30 29 29 29 28 27 26 25 24 23 22 21 20 19 19 19 19 19 17 12 9 10 11 10 8 9 10 12 13 11 10 10 11 10 10 11 12 12 12 12 14 16 17 19 21 21 22 23 25 27 30 32 32 31 31 31 31 32 34 36 37 39 39 39 41 43 42 42 41 40 38 36 32
30 29 30 31 33 33 32 31 31 30 31 31 30 28 27 26 26 26 26 24 24 23 22 21 20 19 20 19 18 17 14 10 9 11 11 9 9 10 11 11 11 10 9 10 11 11 11 12 13 13 13 13 13 14 16 17 19 20 21 22 24 25 27 30 31 31 31 31 30 31 33 35 36 37 38 38 40 41 41 41 41 39 38 35 32
31 30 30 31 33 33 32 31 31 30 29 30 30 28 26 25 24 24 24 24 23 23 21 20 20 20 20 19 17 16 14 13 12 11 10 10 11 11 11 10 10 9 10 11 11 11 11 12 14 14 13 13 13 13 14 16 18 18 19 21 22 23 25 27 29 30 30 30 30 30 32 34 36 37 38 38 38 39 40 39 40 39 37 36 34
33 31 30 30 32 32 31 30 31 30 30 30 29 28 27 26 24 22 21 22 22 21 20 20 19 19 19 18 16 13 12 12 12 11 11 11 11 11 11 11 10 10 11 12 12 11 12 13 14 14 13 14 13 13 14 16 17 18 18 19 20 22 23 24 27 29 29 29 29 29 30 32 34 36 38 38 37 37 38 38 38 37 36 35 34
34 33 33 32 32 31 30 31 31 30 30 30 30 29 28 26 25 22 20 18 17 17 18 18 18 18 18 18 16 14 13 12 12 11 11 12 12 12 12 12 12 12 12 12 13 13 14 14 14 14 14 14 14 14 14 16 17 18 19 19 19 20 21 23 25 28 29 29 28 28 28 30 32 34 36 37 37 36 37 37 37 36 35 34 33
33 33 35 35 34 33 32 32 32 31 31 31 31 30 28 26 24 23 21 19 18 19 19 19 19 19 19 18 16 15 14 13 12 12 12 12 13 14 14 14 14 14 14 14 15 16 16 16 16 15 15 15 15 14 15 16 17 18 19 19 20 20 20 22 23 25 27 28 28 27 27 28 30 32 33 34 35 34 34 35 36 35 34 34 33
32 33 34 35 35 33 32 32 32 32 32 32 31 30 28 26 24 23 22 22 22 21 20 20 20 20 20 19 17 16 14 14 14 13 12 13 14 15 16 16 16 15 16 16 17 17 17 17 17 17 16 16 16 15 15 16 17 18 19 19 20 20 20 20 21 23 25 26 26 26 26 25 28 30 32 32 33 33 33 33 34 34 35 34 34
33 33 34 34 33 32 31 31 31 31 31 30 29 28 27 26 25 24 24 25 25 23 21 20 20 21 21 20 19 17 16 16 16 15 15 15 16 17 18 18 18 18 19 18 18 19 19 18 18 18 17 17 17 16 16 16 17 17 19 19 20 19 19 19 19 21 23 24 25 25 25 24 25 27 29 31 32 33 34 34 33 33 35 35 34
34 34 35 34 33 31 31 31 30 29 28 28 28 27 26 25 25 26 27 27 26 24 23 21 20 21 21 19 19 19 18 18 18 18 18 19 20 20 21 20 20 21 22 21 20 20 20 19 18 17 17 17 18 17 16 16 16 17 18 20 20 20 19 19 19 19 20 22 23 24 24 23 23 24 27 29 30 31 32 33 33 32 34 35 33
34 35 36 35 34 32 32 31 30 28 28 28 28 27 27 27 27 28 28 28 26 25 24 23 22 21 20 18 19 20 21 21 21 21 22 22 23 23 23 23 23 23 24 22 21 21 20 19 17 16 16 17 18 18 17 17 17 17 18 19 20 21 20 19 19 19 19 21 22 23 22 22 21 21 23 26 28 29 30 31 31 30 29 31 31
33 35 36 35 34 33 32 31 30 29 28 29 29 28 28 29 29 29 28 27 26 26 25 25 24 23 21 20 20 21 22 21 22 22 23 23 23 23 24 24 25 25 25 24 22 21 20 18 17 16 16 17 18 18 18 18 18 18 18 18 19 20 20 19 19 19 19 19 21 21 21 21 21 20 21 22 25 26 27 29 30 28 26 27 29
33 34 35 35 34 32 30 29 28 28 28 29 29 29 30 30 30 29 29 28 28 27 26 26 25 22 21 21 21 21 21 21 20 21 21 21 20 21 21 22 23 24 24 24 22 20 19 17 16 16 17 18 19 20 20 19 19 19 19 19 19 19 20 19 19 18 18 18 19 20 20 21 20 19 19 20 22 24 25 26 28 28 24 23 25
33 34 34 34 33 30 27 27 27 27 29 30 30 31 32 31 29 29 29 29 29 28 28 27 25 23 22 22 21 21 21 21 20 21 21 20 20 20 19 19 20 20 21 21 20 19 18 17 16 17 18 20 21 21 21 22 22 21 20 20 20 20 19 19 18 18 18 18 18 19 19 20 19 18 18 18 19 21 23 24 26 27 25 22 21
33 33 32 32 31 29 27 26 27 28 30 31 31 33 33 31 29 28 29 29 30 30 29 28 26 23 22 22 22 22 21 21 21 21 21 21 20 20 19 18 18 18 18 18 18 18 18 18 17 18 19 21 23 23 23 24 24 24 23 22 22 21 20 19 18 17 17 17 18 18 18 19 19 18 17 17 17 18 21 22 23 25 25 22 19
33 31 30 31 30 29 27 27 28 29 30 31 31 33 33 32 29 28 28 29 29 29 29 28 26 24 22 22 22 22 22 21 21 21 21 20 20 19 18 18 18 18 17 18 18 18 18 19 19 19 20 22 23 24 25 26 26 26 26 25 24 23 23 21 19 17 17 17 17 17 18 18 18 18 18 17 16 16 18 20 22 23 24 23 19
33 31 30 29 29 28 28 29 30 30 29 29 29 30 30 30 30 29 29 28 27 27 27 27 25 23 23 23 23 24 22 21 20 20 20 20 20 20 20 20 20 19 19 19 19 19 19 20 20 21 21 22 23 24 25 26 27 28 28 27 26 26 26 23 20 18 18 17 17 17 17 18 18 18 18 17 16 15 16 17 19 20 22 23 21
32 31 30 28 28 28 29 30 31 31 29 28 27 27 26 27 27 27 27 27 26 26 26 24 22 21 20 21 22 23 22 20 20 21 21 21 22 22 23 23 23 23 23 22 22 23 22 22 22 22 23 24 24 25 26 27 28 29 30 30 29 29 28 26 24 21 20 19 17 17 17 17 17 17 17 17 17 16 14 14 16 17 18 20 21
31 30 29 29 28 27 28 29 30 30 29 28 28 28 27 26 26 25 25 24 25 25 25 24 22 21 20 20 21 21 21 21 21 21 21 21 21 21 22 23 24 24 24 23 23 24 24 24 24 24 25 25 26 27 27 28 28 29 30 31 31 31 30 29 27 25 23 21 19 18 17 17 17 17 17 17 17 16 15 13 13 14 15 16 18
29 28 28 28 27 26 26 27 26 25 25 25 26 27 28 28 27 27 25 25 25 26 26 25 24 23 22 21 21 21 21 22 23 22 22 22 22 22 22 23 24 24 25 24 24 23 24 23 23 24 25 26 28 28 29 29 29 30 30 31 30 30 30 29 28 28 26 24 22 20 19 18 18 18 18 17 17 16 15 14 12 12 13 14 15
27 26 26 25 25 25 25 24 23 21 21 21 22 24 26 26 26 25 25 24 24 25 26 26 26 25 24 24 24 24 24 24 24 24 23 24 24 24 24 24 25 26 27 26 26 25 25 25 25 25 25 26 27 28 29 30 30 30 30 29 29 28 27 27 27 27 27 26 25 23 21 20 19 19 18 18 17 16 16 14 12 11 11 12 13
25 24 24 23 24 24 24 22 21 22 22 22 23 25 26 25 25 24 24 23 23 23 24 25 25 25 24 24 24 24 25 25 25 25 25 25 25 25 25 26 25 25 25 25 25 25 25 25 25 26 27 28 28 28 29 29 29 29 28 28 27 26 25 25 24 24 25 26 26 26 24 23 22 21 20 19 18 17 16 15 14 12 10 10 12
24 23 23 23 23 23 23 23 23 24 24 24 24 26 28 28 28 27 26 25 25 26 26 26 26 26 26 26 25 25 25 25 25 26 26 26 26 26 26 25 24 24 23 23 23 22 22 23 24 25 27 28 29 29 29 29 29 28 27 27 27 26 25 24 23 23 23 24 25 26 27 26 25 24 22 20 19 19 18 16 15 14 13 11 11
Wind_Direction
163 161 161 163 164 164 164 164 162 159 157 155 153 152 154 154 153 152 149 147 148 147 143 142 142 139 134 131 129 127 126 123 121 120 118 116 112 105 97 87 80 76 76 78 77 67 60 56 49 39 34 32 31 30 30 29 24 18 11 0 356 352 340 322 298 297 313 320 318 319 324 324 322 323 324 324 326 327 326 324 324 323 322 322 322
164 162 161 163 164 163 163 162 160 158 155 154 154 155 156 155 154 154 150 148 151 150 147 147 149 147 141 136 133 131 128 127 125 123 120 118 115 106 96 86 81 78 78 79 76 67 58 54 48 37 32 29 26 26 25 22 17 11 7 360 351 349 343 327 312 301 308 317 319 319 323 323 319 321 322 319 320 322 322 322 321 321 320 319 319
165 164 164 164 162 161 161 159 158 157 156 156 157 157 157 156 157 157 152 150 151 150 151 155 157 155 148 140 138 136 132 130 128 124 123 121 117 109 97 87 83 82 81 79 76 67 58 53 44 34 30 27 23 23 22 17 11 4 359 355 346 343 342 333 319 307 303 311 317 318 321 321 318 320 321 318 318 318 317 318 318 317 317 317 316
165 165 163 161 160 160 161 160 159 158 157 157 157 157 157 157 159 158 153 149 147 143 148 157 159 158 151 144 140 137 134 133 130 126 124 122 119 113 102 90 86 85 80 76 74 65 55 51 40 30 26 24 21 21 20 13 4 358 352 349 345 340 339 335 326 316 306 306 313 316 317 318 317 319 320 318 317 317 315 315 315 315 315 315 314
165 164 162 160 162 163 163 163 162 160 158 157 157 158 159 158 159 158 154 148 140 136 141 149 155 156 151 146 142 137 135 133 131 128 126 125 122 118 111 101 93 89 80 72 68 61 55 48 36 27 22 19 18 16 13 6 359 354 349 346 343 339 337 336 331 324 313 305 309 315 317 317 317 319 320 319 317 316 315 313 313 313 313 314 313
165 164 163 163 164 165 164 164 163 160 160 160 159 160 160 160 159 157 154 146 136 135 136 139 146 150 147 145 142 138 137 134 132 130 128 125 123 126 126 116 105 96 80 66 60 57 55 45 31 24 19 14 14 10 4 360 355 350 347 343 341 339 337 336 334 327 319 312 310 313 316 317 317 317 320 321 317 315 314 312 312 312 312 313 314
168 167 165 164 165 165 165 165 164 163 163 163 162 163 162 161 159 154 150 143 136 136 135 133 138 142 143 143 140 138 138 136 132 132 130 123 122 132 138 136 132 118 84 60 58 61 53 40 28 21 17 12 8 3 356 353 350 346 344 341 340 339 337 336 335 328 322 317 313 312 314 317 317 315 319 321 318 314 313 311 311 314 314 313 313
170 169 168 167 168 168 168 167 165 164 165 165 165 164 162 160 157 151 145 139 134 134 135 132 134 137 139 140 138 138 140 138 135 136 134 130 130 132 137 149 162 159 121 63 65 78 47 35 27 18 15 10 2 357 353 347 342 340 341 342 341 341 340 338 334 329 323 318 315 314 315 316 318 317 319 321 318 315 315 312 309 311 313 313 312
170 171 171 171 170 169 169 167 164 164 166 166 166 165 162 159 155 150 144 136 131 132 134 134 133 134 136 136 136 139 141 139 140 143 143 144 147 143 135 147 173 198 206 189 156 202 12 32 23 15 11 6 357 353 349 344 340 339 342 344 345 345 343 339 335 330 325 320 317 318 318 317 319 319 319 320 317 315 316 314 308 309 311 310 308
170 171 171 171 170 170 169 167 165 165 167 168 167 165 161 158 155 151 145 137 133 133 134 135 135 134 133 134 136 138 140 139 143 149 154 158 163 173 166 152 171 203 220 215 221 247 269 24 16 10 6 0 353 348 344 343 343 345 347 349 349 349 345 340 337 333 328 322 319 320 319 316 318 319 317 316 317 315 315 315 311 311 312 309 306
170 170 169 169 170 170 171 170 167 167 168 168 167 165 162 159 157 152 144 137 134 135 136 137 136 135 135 135 135 136 136 138 144 153 162 170 182 195 190 166 147 168 217 230 234 246 256 360 3 0 355 350 346 343 342 343 346 352 354 354 353 352 348 342 337 335 331 324 321 321 318 314 317 318 316 316 317 316 315 313 311 312 313 311 308
170 169 168 169 170 170 171 170 168 168 168 168 168 166 163 160 156 151 143 137 135 134 135 134 134 136 138 137 135 134 134 135 142 154 167 176 193 206 198 192 169 172 279 256 241 242 248 322 343 347 344 341 340 341 343 344 347 352 354 354 354 353 350 344 339 336 332 325 321 320 318 316 316 318 319 318 318 316 314 312 311 310 309 306 302
169 168 168 169 170 170 170 169 169 169 170 170 169 167 164 160 155 148 141 136 133 131 130 130 130 133 136 137 136 135 135 137 146 167 191 201 226 247 242 245 250 265 307 302 249 238 256 314 330 336 337 337 340 344 347 347 347 350 351 352 352 349 346 343 341 339 335 328 321 319 320 320 317 317 320 320 317 315 314 313 312 309 305 302 299
168 168 168 169 169 169 170 170 170 171 171 170 169 167 165 159 152 146 140 136 132 129 127 127 127 128 133 137 138 140 142 148 163 195 222 240 258 266 264 261 260 263 282 287 237 233 277 315 326 329 330 336 344 351 352 350 349 350 351 351 349 346 344 342 342 342 339 334 326 322 325 325 320 320 323 323 318 314 313 313 312 309 304 301 299
169 169 168 169 170 171 171 171 170 171 172 172 171 169 165 159 151 145 139 135 130 127 125 125 124 125 128 132 138 146 154 166 194 226 246 259 271 277 266 251 245 246 246 230 213 237 291 317 322 324 329 340 353 357 353 351 352 351 351 351 348 346 345 344 344 343 341 339 334 329 330 330 327 326 327 326 321 316 314 313 311 309 305 302 301
168 168 169 171 172 173 172 171 170 171 173 173 172 170 167 163 156 148 140 134 129 125 124 124 123 123 123 124 129 133 139 151 187 231 262 281 288 287 260 225 212 207 194 184 196 254 308 320 319 327 339 350 0 1 353 351 354 353 351 351 348 347 346 345 344 343 342 343 342 339 339 338 336 333 332 330 326 322 320 316 314 312 308 302 302
170 171 172 173 174 174 174 173 171 171 173 174 174 173 171 168 164 159 153 146 138 131 128 126 124 122 119 119 120 119 117 113 108 93 41 7 332 301 236 199 189 175 164 164 185 264 311 320 327 342 354 357 358 359 355 352 355 355 353 352 349 347 347 346 344 345 346 347 348 348 347 345 342 339 336 334 331 328 325 320 318 316 310 303 304
173 174 175 175 176 176 176 177 175 174 175 176 177 177 176 174 173 171 168 161 152 145 140 134 129 124 119 117 115 112 109 105 96 76 54 33 17 33 147 175 178 172 168 177 199 278 310 326 343 356 359 356 355 356 355 354 356 358 356 354 351 348 346 346 345 346 347 350 352 352 351 349 345 341 339 338 336 335 330 322 318 315 310 308 310
176 176 177 177 177 178 179 181 181 179 178 179 180 181 180 178 178 178 177 171 162 158 156 149 142 135 129 123 118 113 106 98 88 70 52 35 29 92 125 147 156 154 157 170 181 313 320 334 351 357 356 354 354 356 357 356 357 359 358 356 353 349 346 346 346 346 347 348 351 351 350 348 346 342 341 341 339 337 332 325 321 316 313 313 313
178 177 178 177 178 181 182 183 184 183 182 182 182 183 183 182 181 180 179 175 170 168 168 163 157 152 148 143 134 124 109 94 78 63 49 37 48 127 138 137 131 121 106 79 18 341 336 344 352 354 353 353 356 358 359 358 358 359 0 359 355 349 346 347 348 348 347 347 348 348 346 346 345 343 343 341 340 338 335 332 328 323 319 317 314
177 176 177 178 180 183 184 185 185 185 185 184 183 183 184 184 182 181 181 181 179 178 176 174 172 171 172 172 166 149 122 94 72 56 42 34 65 144 147 136 120 96 60 32 5 349 347 349 351 354 353 352 358 2 360 358 359 0 360 359 356 351 349 348 349 350 350 348 347 346 346 345 345 344 343 341 340 339 338 337 335 330 327 323 318
176 176 177 179 181 183 184 185 185 185 186 186 184 183 182 183 183 183 184 187 187 184 182 183 184 186 189 194 193 187 169 111 72 51 32 30 82 153 153 137 106 50 21 7 355 351 351 351 352 354 352 349 357 1 358 357 1 3 1 359 357 355 353 351 351 352 352 349 346 345 345 345 343 343 342 341 340 341 341 340 338 335 334 333 328
176 177 179 181 182 183 184 185 186 186 187 187 186 185 183 184 187 188 189 191 190 188 188 191 194 197 201 204 205 206 210 208 132 53 28 32 102 155 162 149 32 4 353 346 346 349 351 351 351 352 349 347 352 356 357 358 2 5 4 2 0 359 356 354 354 354 351 349 346 345 344 344 343 341 341 341 342 343 344 342 341 339 339 340 340
176 178 180 182 183 184 184 185 187 188 187 187 187 186 186 188 190 192 193 193 192 191 193 197 201 205 211 214 213 212 216 224 233 239 258 114 152 168 189 252 328 337 333 333 340 346 347 349 350 349 346 343 345 349 353 357 2 5 6 5 4 2 359 356 356 354 351 348 346 344 344 344 343 341 341 342 343 344 344 344 344 344 344 344 346
178 179 180 182 182 182 183 184 187 188 188 188 187 185 185 188 190 191 191 191 192 195 198 201 205 211 218 221 220 218 220 225 229 228 230 229 203 200 228 266 301 315 318 326 335 339 340 343 345 343 341 339 339 344 350 355 0 3 5 7 7 5 1 359 357 355 350 347 345 344 344 345 344 344 344 345 346 347 347 347 348 349 350 350 351
178 178 180 181 181 181 181 183 186 188 188 188 187 186 187 190 190 190 191 193 197 200 203 207 211 217 223 227 228 226 226 227 229 227 228 233 223 219 233 254 277 295 306 319 328 327 329 337 337 334 337 340 339 344 349 352 357 1 5 7 8 7 4 1 358 356 351 348 347 345 345 347 348 348 349 349 348 349 350 349 349 351 352 351 352
177 178 180 180 180 180 181 182 184 186 187 187 187 189 193 194 194 194 196 199 202 206 210 213 216 221 227 231 234 232 229 229 231 228 228 234 230 224 230 246 264 281 296 313 324 321 322 333 334 328 334 339 340 343 348 350 354 360 4 6 6 6 5 2 359 357 354 351 350 349 350 352 352 351 351 351 350 350 352 351 350 351 352 352 353
178 178 179 178 179 181 182 183 184 184 185 186 188 192 196 198 199 201 202 204 206 209 213 217 222 227 231 234 236 234 231 231 233 232 231 234 232 227 231 243 257 273 292 312 324 322 318 326 330 324 325 335 340 344 348 352 354 358 2 3 3 4 5 3 0 359 357 355 354 354 354 354 353 352 352 351 351 352 353 354 353 353 353 355 357
177 177 178 178 179 180 182 184 185 185 185 188 192 196 200 202 204 207 208 210 212 213 216 220 226 233 236 237 235 230 229 233 237 236 234 233 232 233 237 243 253 268 288 308 321 323 317 321 328 327 323 330 338 343 348 351 353 355 359 1 360 0 3 3 0 358 358 357 357 356 355 355 353 353 352 351 352 354 355 356 356 356 356 358 359
175 176 177 177 179 180 182 183 184 185 187 189 193 198 203 206 210 212 214 217 220 221 223 226 230 236 238 237 233 230 234 242 240 232 231 232 234 240 242 244 251 264 283 303 317 323 321 323 330 331 325 324 332 340 345 348 349 350 353 356 356 357 360 2 1 358 357 358 358 358 358 356 354 353 353 351 351 354 357 359 359 358 359 359 357
174 176 178 179 180 181 182 183 184 186 188 191 194 198 201 206 212 216 218 220 222 224 228 233 238 241 239 234 230 230 236 240 232 226 229 231 235 243 247 248 253 264 283 300 309 316 322 326 331 332 325 318 323 333 338 342 346 345 345 348 351 353 356 359 0 359 357 358 360 1 1 359 356 355 354 353 353 354 357 0 1 0 0 1 359
176 178 179 180 181 182 182 183 185 186 188 191 195 198 198 201 207 213 217 219 221 225 231 234 236 236 232 228 228 229 231 233 233 230 228 228 235 244 249 251 255 267 283 294 299 305 315 323 329 332 325 315 317 326 331 336 342 342 340 342 345 348 352 356 358 359 358 358 360 1 2 2 360 358 358 357 356 356 357 360 2 1 0 1 2
179 179 179 180 180 182 183 184 185 187 189 192 195 198 199 200 203 208 215 221 226 231 232 227 225 224 220 219 225 233 237 239 237 231 226 229 236 243 248 253 260 272 282 289 292 298 308 316 323 329 324 313 311 318 324 330 336 338 337 337 338 341 346 350 355 358 360 359 360 1 3 4 3 2 2 1 359 358 358 360 1 2 2 2 2
182 181 181 181 180 182 184 185 186 188 191 193 197 199 201 204 206 208 210 215 219 220 218 214 213 213 212 215 223 233 237 235 231 226 226 230 235 240 248 257 266 274 281 285 287 294 305 312 318 324 321 311 306 310 317 324 331 335 335 335 335 337 341 344 350 357 360 360 360 1 2 5 6 4 3 3 2 1 1 1 1 3 3 2 1
183 183 184 184 183 184 186 187 188 190 192 195 199 201 203 206 209 210 210 207 204 202 204 207 210 211 213 218 226 232 232 227 223 223 226 230 234 242 251 259 266 272 277 281 286 293 302 309 313 318 317 309 302 302 309 318 327 333 334 333 333 335 337 340 346 353 358 0 0 1 2 5 7 7 6 5 4 2 1 1 3 4 4 4 3
183 183 184 185 185 185 187 188 190 192 194 197 199 202 204 208 211 213 212 210 207 206 209 214 216 218 220 224 227 226 223 220 220 222 227 232 238 246 253 259 265 271 276 279 284 291 298 303 308 312 312 305 299 298 304 312 322 331 333 332 331 332 333 336 341 347 355 359 0 1 2 4 7 9 9 8 8 6 4 3 5 7 8 8 8
183 183 184 185 186 186 187 189 193 195 196 197 198 201 204 209 213 214 213 212 212 215 219 223 224 224 225 224 222 219 218 219 222 227 233 239 245 250 254 260 266 272 277 281 285 290 295 300 304 306 306 301 296 294 298 307 318 329 332 331 330 329 328 331 334 340 349 356 360 1 2 3 7 10 10 9 10 11 10 9 8 9 12 13 12
185 186 186 186 186 186 186 190 195 197 196 196 198 200 203 209 214 214 213 214 216 221 226 229 228 226 225 223 218 218 222 224 227 232 238 242 247 251 256 262 267 272 277 282 286 291 296 300 304 303 299 296 294 292 294 302 313 323 329 330 330 328 326 326 329 333 341 351 358 0 0 1 4 9 12 12 11 12 14 14 12 11 12 14 14
186 187 188 188 188 188 188 191 194 195 195 196 198 201 205 210 213 213 214 217 221 226 230 233 232 229 228 227 223 225 229 232 235 241 245 248 251 255 259 263 267 271 275 280 286 292 297 301 304 301 294 291 293 292 291 297 307 316 323 326 328 329 327 325 326 329 335 344 353 358 359 359 1 6 11 13 13 14 16 17 16 15 13 12 14
184 186 189 190 190 190 191 193 194 194 196 198 200 203 208 212 214 216 219 223 228 232 235 237 237 234 233 233 232 233 235 239 244 249 254 256 258 261 263 266 269 271 274 278 283 290 297 301 302 299 294 293 295 294 291 293 300 308 314 318 322 326 328 327 325 325 328 336 345 351 355 357 357 0 7 12 14 15 17 18 19 19 18 17 17
183 185 188 191 193 193 192 192 193 195 199 202 203 206 212 216 219 221 225 229 233 237 239 241 242 240 238 239 241 242 245 249 253 257 260 263 266 269 271 274 275 275 276 279 282 288 296 299 298 297 296 296 296 295 293 292 293 299 306 311 314 319 324 327 326 324 323 328 336 344 350 353 354 356 2 8 12 14 16 19 20 20 20 22 22
183 185 188 190 193 193 191 192 196 200 205 207 208 210 216 220 223 227 230 233 236 240 243 245 247 246 243 242 246 249 252 255 257 260 263 266 270 274 278 280 281 281 281 282 283 286 291 294 293 295 297 297 297 296 294 292 292 295 299 303 306 311 317 323 326 326 323 322 327 336 343 347 349 352 356 3 8 11 14 17 19 19 20 23 26
184 186 189 191 193 194 195 198 202 204 207 209 211 214 219 224 227 231 234 236 239 242 246 248 251 250 245 243 246 250 253 255 257 260 264 267 271 276 280 283 284 285 285 284 283 284 285 287 288 290 293 296 297 297 295 294 294 293 294 297 301 304 309 315 320 324 324 321 322 328 335 341 343 345 349 357 4 9 12 15 17 18 19 20 25
185 187 191 193 194 197 202 205 206 207 210 213 216 218 221 226 230 234 237 238 241 244 247 249 251 251 247 244 244 247 250 254 257 261 265 267 271 277 282 287 290 290 288 287 286 285 285 285 286 287 290 293 295 296 295 294 294 292 292 294 296 299 302 308 313 317 320 320 320 323 327 333 338 339 341 348 357 4 10 14 16 18 18 17 19
186 187 190 194 197 201 206 208 210 212 214 215 217 220 224 227 231 234 236 239 242 246 248 248 250 251 250 249 249 250 253 256 259 264 268 272 275 280 284 287 289 290 288 289 289 287 286 286 285 285 287 290 294 297 297 297 295 294 292 292 293 296 300 304 306 308 310 314 318 320 320 324 330 334 335 339 346 354 4 10 13 15 16 15 15
186 186 189 195 200 204 206 209 212 214 215 217 219 221 224 228 231 234 237 240 244 247 247 245 245 248 250 250 251 252 254 257 263 270 274 277 279 282 284 285 285 286 286 288 289 288 286 285 284 283 283 286 290 294 296 297 297 297 295 294 293 296 299 302 301 300 301 305 311 315 315 316 321 326 330 332 335 340 349 359 6 10 13 13 13
186 188 191 197 202 205 207 210 213 215 218 221 225 228 231 234 236 238 242 245 246 244 242 243 246 249 250 251 253 254 255 261 268 274 277 278 281 283 285 286 287 288 289 289 290 289 289 288 286 283 281 281 285 288 292 295 297 298 297 297 297 298 300 300 298 296 296 298 301 306 308 310 312 316 321 326 328 330 335 344 356 5 8 9 11
187 189 192 198 204 210 213 213 213 215 219 224 229 232 235 238 240 241 244 245 244 241 242 245 250 254 256 258 259 260 262 266 271 273 275 279 283 286 288 288 289 290 292 292 292 292 293 292 291 288 284 281 281 284 287 290 294 296 298 299 300 302 303 301 299 297 294 293 294 297 300 303 305 306 311 317 320 323 326 331 342 355 2 4 7
189 192 194 199 207 215 217 215 215 218 222 228 235 238 239 239 240 241 243 245 245 246 248 251 255 258 261 263 265 266 267 269 270 271 276 282 286 288 288 289 289 290 291 291 291 291 291 291 292 291 290 287 285 284 285 287 289 292 296 298 301 303 305 303 301 300 296 291 289 289 291 294 297 298 300 305 310 314 317 320 325 337 350 355 360
195 197 200 205 213 218 218 217 220 225 227 231 238 242 242 240 239 239 241 244 246 248 251 254 257 259 261 263 265 266 268 269 270 273 278 283 285 286 288 289 289 289 290 291 291 291 291 290 290 289 289 289 289 288 288 288 288 290 292 294 296 299 301 301 301 301 298 294 290 287 285 287 289 290 291 295 300 304 308 310 311 316 325 336 346
200 202 205 212 220 223 221 220 226 231 234 237 241 243 242 240 240 241 244 246 248 251 254 256 258 260 261 262 263 265 267 269 273 277 280 282 283 286 288 289 289 289 290 291 292 293 293 293 294 293 291 291 292 291 291 291 290 290 290 290 291 292 294 296 297 298 297 296 293 288 284 283 283 284 285 287 290 293 298 301 302 303 306 311 319